Find Starlink 30309

NORAD ID: 57632 Int'l Des: 2023-122 Owner: SPXS Country: US Constellation: starlink operational
LEOCIRCULAR

Aktuelle Ansicht

3D-Globus wird geladen...

Über Starlink 30309

Beschreibung wird geladen...

Nächste Überflüge

Passes for default location (London). Set your location on the main map for personalized predictions.

Höhenverlauf

Loading altitude history...

Zweizeiliger Elementsatz

1 57632U 23122A 26146.35923788 -.00000041 00000-0 80647-5 0 9993
2 57632 43.0068 14.0352 0003215 281.3100 78.7390 15.27567387154080
Epoch: 26. Mai 2026 • Age: 15 hours

Aktueller Status

Höhe 486.1 km
Geschwindigkeit 7.62 km/s
Subsatellitenpunkt -16.76°S, 29.89°W
Startdatum 17. Aug. 2023
Alter 2.7 years
Typ internet

Technische Details

Klassifizierung Payload
Masse 730.00 kg
Trockenmasse 700.00 kg
Gesamtmasse 730.00 kg
Länge 0.30 m
Durchmesser 4.10 m
Spannweite 29.00 m
Form Box + pan
Hersteller SPXS
Bus-Typ Starlink V2M
Phasenstatus In Orbit
Besitzer/Staat SPXS/US

Most Searched